Wind_Speed
22 20 19 18 17 16 16 14 14 13 13 13 13 13 14 14 13 13 13 12 12 11 10 10 9 8 8 9 9 8 7 7 7 7 8 8 8 9 8 9 9 8 8 9 9 9 9 10 11 11 12 11 11 12 12 12 12 12 11 10 9 8 7
22 21 20 19 18 17 16 15 15 14 13 14 14 14 15 15 15 14 13 12 12 12 11 10 10 9 8 9 9 9 7 7 7 7 8 8 8 9 9 9 9 9 8 8 8 9 9 9 9 10 10 11 11 11 11 11 10 10 9 8 7 6 5
19 20 19 19 19 18 18 17 16 16 15 14 14 15 15 16 16 15 14 13 12 12 12 11 11 11 10 9 9 9 9 7 7 7 8 8 9 9 9 10 10 9 9 8 8 8 8 8 8 8 8 9 9 9 9 9 9 8 7 6 5 4 3
18 18 19 19 19 19 19 18 18 18 17 16 15 16 16 16 15 15 14 14 13 12 12 12 12 12 11 10 10 9 9 8 8 8 8 8 8 9 10 10 10 10 10 10 9 8 8 7 7 7 7 7 7 7 7 7 7 7 6 5 4 4 3
17 18 18 18 18 18 18 18 18 19 19 18 16 16 16 16 15 15 15 15 14 14 13 12 12 12 11 11 11 10 9 9 9 8 8 8 8 8 9 10 10 10 10 10 10 9 9 8 7 7 7 7 7 7 7 7 7 6 6 6 5 5 5
14 17 18 18 18 17 18 18 18 19 19 19 18 18 18 17 16 17 16 16 15 14 14 14 13 12 12 11 11 11 10 10 9 9 9 9 8 8 8 9 9 9 9 9 9 10 10 9 9 8 8 8 8 8 8 8 7 7 7 7 7 7 7
11 13 16 19 19 18 19 19 19 19 20 20 20 19 19 18 17 17 17 17 16 15 15 15 15 14 13 12 12 11 11 11 10 10 10 9 9 8 8 8 8 9 9 9 9 9 9 10 10 10 9 9 9 9 9 9 9 9 8 8 8 8 8
14 12 12 15 19 20 20 21 20 20 20 19 19 19 20 19 18 18 18 17 17 16 15 15 15 15 15 14 13 12 11 11 11 10 10 10 9 9 9 8 8 8 9 9 10 9 9 10 10 10 10 10 10 10 10 10 10 10 9 9 9 9 9
19 16 14 14 16 19 20 21 21 21 21 20 20 20 20 21 20 19 18 18 17 17 16 16 15 15 15 15 15 14 13 12 11 11 11 10 10 10 10 9 9 9 9 10 10 10 10 10 10 10 10 10 11 11 11 11 11 11 10 10 10 10 10
21 20 19 17 17 18 20 22 23 23 22 22 22 21 21 21 20 19 19 19 18 18 17 16 15 15 15 15 16 15 15 14 14 13 12 12 11 11 11 10 10 10 10 10 10 10 10 10 10 11 11 10 11 11 11 11 11 11 11 11 11 11 10
23 23 23 21 20 20 21 21 21 21 22 23 23 22 21 20 20 19 18 19 19 18 18 17 16 16 15 15 15 16 16 15 15 15 15 14 13 12 12 11 11 11 11 10 10 10 10 10 11 11 11 11 11 12 12 12 12 12 12 11 11 12 12
25 27 27 25 23 22 21 20 18 18 20 22 22 22 22 21 20 19 18 18 19 18 18 17 17 17 16 16 16 15 15 16 16 17 16 16 15 14 14 13 13 12 12 12 12 12 11 11 11 11 11 11 12 13 13 13 13 12 12 12 12 13 13
23 25 25 24 23 23 22 21 19 17 18 20 20 21 23 23 23 22 20 19 19 19 18 18 19 19 18 17 16 16 16 17 17 17 17 16 16 16 16 15 15 14 14 15 15 14 14 13 13 12 12 13 13 13 13 13 13 13 13 14 14 14 14
22 21 21 20 21 22 22 23 24 22 21 20 20 20 22 23 24 24 22 22 21 20 19 19 19 20 20 19 19 19 19 19 19 18 17 17 16 16 16 16 16 16 16 17 17 16 16 16 15 15 14 15 15 14 14 14 13 14 14 15 15 15 15
21 21 24 25 24 23 23 23 25 26 26 24 22 21 20 20 23 25 25 24 23 22 21 19 19 21 21 21 21 22 23 22 21 20 18 17 16 16 17 17 17 17 17 18 19 19 18 18 18 17 17 17 17 16 15 15 15 15 16 16 16 16 16
23 23 26 28 27 25 25 26 26 27 29 29 27 25 23 21 23 25 26 26 25 24 23 22 21 22 23 24 24 24 24 23 21 20 18 18 18 18 19 19 18 17 18 18 19 20 20 20 20 20 20 19 19 17 17 17 17 18 18 18 18 18 18
21 25 27 29 28 26 26 28 29 29 30 31 31 29 26 24 24 24 25 26 26 25 26 25 25 26 26 26 25 24 23 22 21 21 21 20 21 22 21 21 20 20 20 20 20 21 21 21 21 21 21 20 19 18 19 20 20 19 19 20 20 20 20
20 24 28 29 28 26 26 27 28 29 30 30 29 28 26 26 26 24 23 25 27 27 27 27 27 27 27 26 24 23 21 21 21 21 22 22 23 24 24 23 22 23 23 23 23 23 22 22 22 21 20 20 19 19 21 22 22 21 21 22 22 22 22
19 19 23 25 22 22 23 23 24 27 30 30 29 28 27 27 28 27 26 26 28 29 30 29 28 28 27 26 24 22 21 21 21 23 24 24 24 24 25 25 25 26 26 26 25 24 25 25 25 23 22 20 19 20 22 23 23 23 23 24 24 25 24
20 18 20 21 21 21 22 23 24 25 27 30 31 30 30 30 29 29 30 30 30 31 31 29 27 27 28 27 25 23 23 24 24 25 26 25 24 25 27 27 26 27 28 27 26 26 27 27 26 25 24 23 22 23 24 25 25 25 25 26 26 27 27
23 25 28 30 31 31 31 30 29 29 30 32 34 33 31 31 29 29 31 32 32 32 30 27 26 28 29 27 26 25 24 25 25 25 25 25 24 25 27 28 28 28 28 27 27 27 27 27 26 25 25 24 23 23 24 24 26 27 27 28 28 29 29
23 28 34 37 37 35 34 34 34 34 33 33 34 34 31 30 30 30 32 34 33 31 30 27 27 29 28 25 23 23 23 24 24 24 24 24 23 23 24 28 31 30 29 28 27 27 28 28 28 26 25 25 24 24 24 24 25 26 26 27 28 29 30
27 26 23 25 28 27 29 32 33 33 33 32 34 35 33 32 33 34 35 35 33 31 31 31 30 28 25 22 22 22 23 23 23 23 24 24 24 22 22 25 28 29 28 28 27 27 27 29 30 29 27 27 26 27 26 25 25 27 28 28 29 29 30
32 31 21 14 15 20 25 27 27 28 30 30 32 34 34 32 33 36 37 35 33 31 31 32 31 28 25 23 22 23 24 24 23 21 22 22 22 22 22 22 23 25 26 27 27 27 28 30 31 31 29 28 28 28 28 27 27 28 30 31 31 32 32
31 37 35 23 13 17 23 24 21 21 23 26 29 30 32 31 32 35 36 34 32 30 30 31 30 30 28 26 25 25 26 25 22 20 20 21 22 23 24 24 23 23 24 25 25 25 26 27 28 29 30 30 30 29 29 29 29 29 30 32 33 33 33
31 37 42 38 28 24 25 24 23 18 15 22 27 27 27 29 31 34 36 35 34 33 33 32 31 32 32 28 26 26 26 26 24 22 21 21 22 24 25 25 24 24 25 25 24 23 23 23 24 26 28 30 30 30 30 30 30 31 32 33 34 34 33
34 37 39 38 34 32 32 32 33 26 20 22 25 24 26 28 29 32 34 34 35 36 37 37 37 37 38 33 29 28 27 26 25 23 22 22 23 24 26 27 26 25 26 26 26 24 23 23 23 24 25 26 27 28 30 32 32 33 33 34 35 34 34
35 36 37 34 30 29 31 34 37 36 33 31 27 26 28 29 29 31 32 33 35 37 38 39 39 40 40 38 35 33 31 28 26 23 22 23 24 25 26 27 27 26 27 26 25 24 23 22 22 22 22 22 23 24 27 29 30 31 32 33 34 33 31
36 36 37 38 35 31 30 31 34 37 39 39 36 33 32 31 31 32 31 33 35 36 37 39 39 40 41 39 37 35 33 31 29 26 24 25 25 26 26 26 27 27 27 25 24 24 24 24 24 24 23 23 23 24 24 24 25 26 27 27 27 27 25
40 39 39 40 40 37 33 31 31 33 35 37 38 38 36 34 34 34 33 32 33 34 37 39 39 41 42 41 38 36 34 33 32 31 29 27 27 28 28 28 28 28 27 26 26 27 28 28 28 27 26 26 26 26 25 23 23 23 23 23 24 23 21
41 41 41 42 42 41 38 35 33 32 33 35 37 39 39 38 37 36 36 35 34 34 36 38 39 40 41 41 40 38 36 35 34 33 32 31 30 30 30 29 28 28 28 28 28 28 28 28 27 27 27 26 26 26 26 26 25 25 24 24 24 23 23
41 41 41 42 42 42 41 40 37 36 35 35 36 37 39 39 39 39 39 39 39 38 37 38 39 40 41 42 42 41 39 38 36 34 34 33 32 32 32 31 30 29 29 29 29 29 30 29 28 27 27 27 27 27 28 28 28 27 27 27 28 28 29
40 41 40 40 41 41 39 38 38 38 38 37 38 40 40 40 40 41 41 41 41 41 41 41 41 42 42 43 43 43 42 41 39 38 36 35 34 34 33 33 33 31 31 31 31 31 32 32 32 31 30 30 29 30 30 30 30 29 28 29 31 31 29
38 39 40 40 41 42 40 37 36 36 35 35 37 40 43 43 43 42 42 43 43 43 44 44 44 44 45 45 45 44 44 44 43 41 40 38 37 35 35 35 35 33 32 32 33 34 33 33 33 33 31 30 29 29 29 28 29 28 28 28 28 27 25
36 37 39 39 39 40 40 38 36 36 36 35 34 33 36 40 43 44 43 43 43 44 45 45 45 46 46 47 47 45 45 45 45 43 42 41 39 38 38 38 37 36 33 32 34 35 34 32 32 32 31 30 29 28 28 27 26 26 26 26 26 24 24
36 36 37 37 38 39 40 40 38 37 39 40 39 35 33 34 38 42 44 44 43 43 44 45 45 46 47 47 47 45 45 46 46 46 45 43 41 40 40 39 39 38 35 34 35 34 31 30 30 30 30 29 27 27 27 27 26 26 26 26 26 25 24
37 37 37 37 37 38 40 40 40 40 41 43 43 42 40 38 38 39 42 43 44 43 43 44 44 45 46 46 45 44 45 46 47 46 46 44 43 42 42 41 41 40 38 38 39 38 35 33 32 31 30 29 28 28 30 30 29 28 28 28 27 27 26
38 38 38 38 38 38 38 39 39 39 41 43 44 44 43 41 41 41 42 43 44 44 44 44 44 45 46 45 44 44 44 44 45 44 44 45 44 42 42 41 41 41 41 40 41 42 41 39 39 38 37 36 34 34 35 34 33 31 30 30 30 29 29
Wind_Direction
195 199 199 200 204 209 209 208 213 216 206 196 196 194 190 191 192 194 199 197 190 183 175 169 165 157 150 148 149 151 152 155 162 169 172 167 160 156 151 145 141 137 132 128 126 127 130 129 130 133 137 139 142 144 146 145 145 145 144 145 146 146 143
194 196 197 199 202 207 210 208 211 218 217 204 199 198 194 194 196 197 200 200 194 188 186 182 177 172 163 154 153 156 155 155 163 170 173 175 175 171 164 157 151 148 145 142 139 138 136 134 135 138 139 141 144 148 149 149 149 150 151 153 153 150 150
200 199 198 198 199 206 212 211 212 218 222 213 203 202 202 200 199 199 201 204 199 191 190 191 188 184 176 166 162 161 160 163 168 172 177 181 183 182 177 171 164 160 158 157 156 151 147 146 146 145 144 146 149 151 153 155 157 159 162 167 169 168 181
207 205 202 201 199 204 211 212 214 218 222 219 209 206 208 206 202 201 203 206 204 197 194 195 193 191 185 178 175 171 169 171 172 175 182 185 188 189 186 182 175 173 172 168 168 166 162 162 160 156 157 161 163 164 166 168 170 175 180 189 200 209 226
212 211 209 207 204 206 211 213 215 219 222 221 215 211 212 210 204 202 204 207 209 205 199 198 196 194 192 186 184 182 181 179 177 180 185 187 193 195 192 190 185 184 184 180 178 178 175 176 177 177 178 181 185 187 190 194 196 200 205 212 224 234 245
213 218 217 216 213 212 216 220 220 221 224 223 218 214 214 212 207 204 206 208 211 209 205 203 201 198 198 195 190 190 190 189 187 189 190 190 194 196 198 200 195 194 195 194 193 190 186 186 188 190 195 201 205 206 207 212 215 219 225 231 240 250 258
214 220 221 221 220 217 221 227 228 225 226 225 221 217 217 216 211 208 208 209 211 211 210 209 207 205 205 203 199 199 199 198 199 199 200 199 197 195 200 206 203 202 203 204 206 204 200 199 197 197 202 209 217 221 222 224 226 230 236 240 246 255 262
221 224 222 221 222 221 223 230 235 234 233 232 228 223 220 219 216 213 211 211 211 211 213 213 210 209 212 212 208 207 207 208 210 209 208 209 205 200 204 208 208 210 211 210 211 212 212 211 209 207 209 213 220 226 230 234 236 239 244 248 252 258 263
225 226 225 223 223 224 225 229 235 238 238 238 236 230 224 222 220 218 216 215 213 213 214 215 214 212 214 217 216 214 213 214 217 217 216 216 214 211 211 213 213 215 219 218 218 217 217 220 220 219 219 222 226 230 233 237 241 244 248 253 257 260 262
224 225 225 225 226 226 226 228 234 238 238 238 240 236 231 227 224 223 221 219 216 215 216 216 215 213 214 217 218 217 217 217 219 221 221 221 221 219 219 220 220 221 224 227 227 226 226 228 231 230 229 231 236 239 241 243 245 247 250 253 256 258 259
218 219 221 223 224 226 226 227 234 240 237 233 235 238 236 232 230 227 224 224 222 218 217 216 216 215 213 215 217 218 218 218 220 222 223 225 224 223 225 226 225 226 228 232 235 237 237 237 240 242 240 239 242 246 249 252 252 253 255 256 255 256 257
217 213 213 214 215 217 220 221 226 233 230 224 227 236 239 237 234 230 225 226 228 223 217 215 218 216 213 214 216 218 218 218 220 222 223 226 226 226 228 229 229 231 232 234 237 240 243 244 246 248 247 245 246 247 250 255 258 259 261 262 262 262 263
225 217 211 210 211 211 213 215 216 217 216 215 217 227 235 236 234 230 224 224 227 227 222 219 222 221 216 215 217 219 220 220 221 223 223 225 227 229 231 233 233 234 235 237 238 238 242 245 245 246 249 249 248 247 248 250 256 258 259 261 264 267 268
228 227 222 219 220 221 220 218 216 214 212 212 213 220 229 232 230 225 222 222 224 228 226 223 225 226 221 219 219 220 221 222 223 224 223 224 226 229 234 236 236 238 239 241 242 241 242 243 243 244 246 248 248 249 249 250 253 255 255 257 260 263 266
225 230 229 224 223 227 227 224 222 219 216 215 214 219 224 225 225 221 218 219 222 225 225 221 222 227 226 223 223 223 224 225 228 229 230 231 231 232 236 237 238 240 243 246 247 247 246 245 246 247 245 247 249 248 249 251 252 252 253 255 256 257 259
232 232 231 228 225 227 230 231 228 223 221 219 217 219 220 218 219 219 216 217 220 222 224 221 220 224 226 224 224 226 227 229 232 235 238 243 244 243 244 245 245 244 245 248 251 251 250 249 249 248 247 248 251 251 251 252 253 254 255 256 256 257 257
227 226 228 228 227 228 231 233 229 223 222 223 223 224 223 220 220 217 215 216 218 220 223 223 223 226 228 227 225 227 230 232 234 236 236 239 242 244 245 246 249 250 248 249 251 253 255 254 253 253 253 254 257 258 257 258 258 259 258 257 257 259 261
223 222 221 222 225 230 232 232 229 223 221 220 220 222 224 224 224 222 221 223 223 224 224 224 224 227 231 233 231 231 236 238 241 242 241 240 242 244 244 242 242 246 247 246 246 248 252 255 255 256 258 261 263 263 262 262 262 261 260 259 260 262 264
228 219 214 213 218 224 225 226 224 220 217 215 215 216 216 220 222 220 223 228 231 233 232 230 229 228 231 234 234 233 238 242 244 246 246 246 247 249 249 247 243 242 244 245 245 246 246 247 249 251 252 255 257 259 260 261 260 259 258 259 260 262 262
231 226 220 219 224 227 229 228 222 219 221 223 224 221 215 215 219 219 220 224 228 234 238 239 239 235 233 234 234 233 237 240 241 243 245 247 248 250 252 251 247 244 244 244 246 248 249 248 247 248 249 249 248 250 253 255 257 258 258 259 260 260 261
236 240 241 240 242 242 241 238 231 229 232 233 230 225 217 215 218 221 221 221 223 228 234 241 244 242 239 238 237 236 237 240 241 242 245 246 247 250 251 250 248 248 248 247 247 249 253 254 252 251 251 251 249 249 251 253 256 258 259 261 262 263 264
232 242 245 242 241 242 241 240 237 234 234 229 223 221 220 217 215 215 216 219 222 225 229 233 236 239 241 243 243 239 237 238 241 243 244 246 250 255 254 249 247 248 249 249 249 249 252 255 255 254 255 256 255 253 252 253 255 258 259 261 263 265 266
226 235 238 231 229 232 235 236 233 232 229 221 216 218 221 220 217 216 217 220 225 231 233 232 232 234 239 243 245 243 240 241 243 245 245 246 251 257 256 249 247 249 251 251 249 248 250 253 256 256 255 255 256 255 253 253 256 260 263 265 267 268 269
224 226 224 208 199 211 225 229 229 234 233 224 219 219 221 221 221 222 222 223 227 232 237 239 239 236 234 237 241 244 247 248 248 251 251 249 248 251 252 251 251 254 256 256 253 251 251 253 255 257 256 254 254 256 257 257 258 261 265 267 269 270 271
227 226 231 238 222 209 221 224 226 239 239 226 219 218 218 220 222 222 223 225 228 232 237 241 244 242 238 238 240 245 251 252 251 251 252 251 251 253 254 255 255 255 258 259 259 258 257 257 257 258 258 256 256 259 261 262 262 262 264 267 269 270 271
230 228 235 247 248 234 225 215 212 224 231 222 222 224 224 226 227 225 226 228 230 235 238 240 244 249 250 248 244 244 248 250 251 251 251 251 254 256 258 258 257 258 260 261 261 261 261 260 258 257 258 259 260 261 262 264 264 264 265 266 268 270 271
230 231 235 243 246 241 232 220 214 219 227 227 230 234 234 234 233 230 229 229 230 233 238 241 245 250 254 254 250 247 246 247 250 253 253 252 253 254 258 261 261 261 261 262 262 261 261 260 257 256 257 260 261 261 262 263 264 265 266 267 269 270 272
229 230 232 235 237 238 236 230 226 230 238 240 239 238 236 235 235 232 230 231 233 235 239 243 247 249 251 251 250 251 251 251 252 253 252 252 254 254 256 259 261 262 261 262 262 262 262 261 258 256 257 260 263 264 263 263 265 265 265 266 267 267 267
235 234 234 236 240 244 246 245 243 245 249 249 246 244 243 242 243 245 244 242 241 240 240 243 246 248 249 249 249 251 253 255 258 258 253 250 253 257 259 258 258 259 259 260 264 266 266 264 261 259 259 261 263 266 265 266 267 265 262 263 263 261 259
243 244 242 243 248 252 254 254 252 252 256 255 249 247 247 247 248 251 252 249 245 243 243 244 247 249 251 252 252 253 254 255 259 262 261 256 253 254 257 257 255 256 258 259 262 264 263 261 260 260 260 261 262 263 262 262 261 261 262 264 261 256 259
249 251 251 251 254 256 257 258 257 256 258 258 253 248 246 246 246 247 247 248 249 249 247 247 248 250 253 255 256 257 257 258 260 262 264 263 259 257 257 257 256 256 258 259 259 258 257 254 254 255 257 259 259 259 258 256 254 255 261 263 259 257 267
252 254 255 255 256 257 258 258 259 258 258 259 257 251 246 245 245 245 245 246 249 249 247 246 247 249 251 254 256 257 258 259 260 261 262 263 262 261 260 260 259 257 256 256 256 256 255 255 256 257 256 255 254 253 254 254 252 251 253 255 257 263 272
255 256 257 256 256 258 259 258 257 257 257 257 256 253 249 246 244 244 244 244 245 244 244 244 245 246 248 251 253 255 256 257 257 258 259 260 261 261 260 260 259 259 258 258 257 256 256 257 258 257 255 253 251 250 252 253 254 253 252 255 260 265 269
256 256 257 257 257 257 258 258 255 253 252 252 253 252 251 248 245 243 243 243 243 243 244 244 245 245 246 248 249 251 253 255 255 255 256 257 257 258 259 258 258 258 258 259 260 259 258 257 255 252 252 251 250 250 250 251 253 254 254 256 259 261 261
258 257 257 256 256 256 256 255 253 251 249 250 251 254 253 250 247 246 245 244 244 244 244 245 245 246 246 247 248 249 251 254 255 255 255 256 256 256 256 256 257 257 256 259 261 259 254 251 250 250 249 249 250 252 251 248 247 249 251 253 255 256 255
260 259 258 257 256 255 255 254 252 251 251 251 253 255 255 254 252 249 248 247 246 246 246 246 247 247 247 247 248 249 250 252 254 255 255 255 255 255 255 255 255 255 253 253 256 254 247 245 249 251 249 246 247 250 249 247 246 248 251 254 255 255 253
262 260 260 259 257 256 255 255 254 251 251 252 255 256 257 257 256 254 251 250 249 249 250 250 250 250 250 249 249 250 250 251 252 254 255 255 254 253 253 253 254 254 251 249 249 250 249 249 250 251 249 246 245 246 247 249 251 252 253 254 254 253 252
264 263 262 261 260 259 258 257 257 254 251 250 254 256 257 257 256 255 253 251 251 251 252 253 252 252 252 251 251 251 251 252 252 252 253 254 254 253 252 252 252 254 253 251 250 252 254 254 253 253 252 251 249 249 250 251 252 253 252 252 252 253 254
Height
5906 5908 5909 5911 5913 5915 5917 5918 5919 5921 5922 5924 5925 5926 5927 5928 5930 5931 5932 5934 5935 5936 5937 5938 5939 5940 5941 5942 5942 5943 5945 5946 5947 5948 5949 5950 5951 5952 5953 5954 5954 5955 5956 5956 5957 5957 5958 5959 5960 5960 5961 5962 5963 5963 5964 5965 5966 5966 5967 5968 5968 5969 5970
5904 5906 5908 5910 5912 5914 5915 5917 5918 5920 5921 5923 5925 5926 5927 5928 5929 5931 5932 5933 5934 5935 5936 5938 5939 5940 5941 5942 5942 5943 5944 5945 5947 5948 5949 5950 5951 5952 5952 5953 5954 5955 5956 5956 5957 5958 5958 5959 5960 5961 5961 5962 5963 5964 5964 5965 5966 5967 5967 5968 5969 5969 5970
5904 5905 5907 5909 5911 5913 5914 5915 5917 5919 5920 5922 5924 5926 5926 5927 5928 5930 5931 5933 5933 5934 5936 5937 5938 5939 5940 5941 5942 5943 5944 5945 5946 5947 5949 5949 5950 5951 5952 5953 5953 5954 5955 5956 5957 5958 5958 5959 5960 5961 5961 5962 5963 5964 5964 5965 5966 5967 5967 5968 5968 5969 5969
5904 5905 5907 5908 5910 5911 5913 5914 5916 5917 5918 5920 5923 5925 5926 5926 5928 5929 5931 5932 5933 5934 5935 5936 5937 5938 5939 5940 5942 5943 5944 5945 5946 5947 5948 5949 5950 5951 5952 5952 5953 5953 5954 5955 5956 5957 5958 5958 5959 5960 5961 5962 5963 5964 5964 5965 5966 5967 5967 5968 5968 5968 5968
5903 5905 5907 5908 5909 5911 5912 5913 5915 5916 5917 5919 5921 5924 5925 5926 5927 5928 5929 5931 5932 5933 5935 5936 5937 5938 5938 5939 5940 5942 5943 5944 5945 5946 5947 5948 5949 5950 5951 5951 5952 5952 5953 5954 5955 5956 5957 5958 5958 5959 5960 5961 5962 5963 5964 5965 5965 5966 5967 5967 5967 5968 5968
5902 5904 5906 5907 5908 5910 5911 5912 5914 5915 5916 5917 5919 5922 5923 5925 5926 5927 5928 5930 5931 5933 5934 5935 5936 5937 5938 5938 5939 5940 5941 5942 5943 5944 5946 5947 5948 5949 5950 5951 5951 5952 5953 5954 5954 5955 5956 5957 5958 5958 5959 5961 5961 5962 5963 5964 5964 5965 5965 5966 5966 5967 5967
5901 5903 5904 5906 5907 5909 5911 5912 5913 5914 5915 5916 5918 5920 5922 5924 5925 5927 5928 5929 5930 5932 5933 5934 5935 5936 5937 5938 5938 5939 5940 5941 5942 5943 5944 5945 5946 5948 5949 5950 5951 5951 5952 5953 5954 5955 5955 5956 5957 5957 5958 5959 5960 5961 5962 5962 5963 5963 5964 5965 5965 5965 5966
5900 5901 5903 5905 5906 5908 5910 5911 5912 5913 5914 5915 5917 5919 5921 5922 5924 5926 5927 5928 5929 5930 5932 5933 5934 5935 5936 5937 5938 5938 5939 5940 5941 5942 5943 5944 5945 5946 5947 5948 5950 5951 5951 5952 5953 5954 5955 5956 5956 5957 5957 5958 5959 5960 5960 5961 5962 5962 5963 5963 5964 5964 5965
5898 5900 5901 5903 5904 5906 5908 5910 5911 5912 5914 5915 5916 5918 5919 5921 5923 5925 5926 5927 5929 5929 5931 5932 5933 5934 5935 5936 5937 5937 5938 5939 5940 5941 5941 5942 5943 5945 5946 5947 5948 5950 5950 5951 5952 5953 5954 5954 5955 5956 5957 5957 5958 5959 5959 5960 5961 5961 5962 5962 5963 5963 5964
5895 5897 5898 5900 5902 5904 5906 5908 5909 5910 5912 5914 5915 5916 5918 5920 5921 5923 5925 5926 5928 5929 5929 5931 5932 5933 5934 5935 5936 5936 5937 5937 5938 5939 5940 5941 5942 5943 5945 5946 5947 5949 5950 5950 5951 5952 5952 5953 5954 5955 5955 5956 5957 5958 5958 5959 5960 5960 5961 5961 5962 5962 5963
5891 5893 5895 5897 5899 5901 5903 5905 5906 5908 5910 5912 5914 5915 5917 5918 5920 5922 5924 5925 5926 5927 5928 5930 5931 5931 5932 5933 5934 5935 5935 5936 5936 5937 5938 5939 5940 5942 5943 5945 5946 5947 5948 5949 5950 5950 5951 5952 5952 5953 5954 5954 5955 5956 5957 5958 5959 5959 5959 5960 5960 5961 5961
5889 5889 5890 5892 5894 5897 5900 5902 5903 5905 5906 5909 5912 5913 5914 5916 5918 5920 5922 5923 5924 5925 5927 5928 5929 5930 5931 5931 5932 5933 5934 5934 5935 5935 5936 5938 5939 5940 5942 5943 5944 5945 5946 5947 5948 5949 5949 5950 5951 5951 5952 5953 5954 5954 5955 5956 5957 5958 5958 5959 5959 5959 5960
5890 5890 5890 5891 5892 5894 5896 5898 5900 5902 5903 5906 5908 5910 5911 5912 5914 5917 5919 5921 5921 5923 5924 5926 5927 5928 5929 5930 5931 5931 5932 5932 5933 5933 5935 5936 5937 5939 5940 5941 5942 5943 5944 5945 5945 5946 5947 5948 5949 5950 5951 5951 5952 5952 5953 5954 5955 5956 5956 5957 5957 5958 5958
5890 5892 5893 5893 5893 5893 5894 5896 5898 5899 5901 5902 5905 5906 5907 5908 5910 5913 5915 5917 5918 5920 5921 5923 5925 5925 5926 5928 5928 5929 5929 5930 5930 5931 5933 5934 5936 5937 5937 5938 5939 5940 5941 5942 5943 5944 5945 5946 5946 5948 5948 5949 5950 5951 5952 5953 5953 5954 5954 5955 5955 5956 5957
5888 5890 5892 5891 5892 5892 5893 5895 5896 5897 5899 5900 5902 5903 5904 5905 5907 5909 5911 5914 5915 5917 5918 5920 5922 5922 5923 5924 5925 5925 5926 5927 5929 5930 5932 5933 5935 5936 5936 5936 5937 5938 5939 5940 5941 5942 5943 5943 5944 5945 5946 5947 5948 5949 5950 5951 5951 5952 5952 5953 5953 5954 5954
5885 5887 5889 5889 5890 5891 5892 5893 5894 5896 5897 5897 5898 5900 5902 5903 5904 5906 5908 5910 5912 5914 5915 5917 5918 5919 5919 5920 5921 5922 5924 5926 5928 5930 5931 5932 5933 5934 5934 5935 5936 5937 5937 5938 5938 5939 5940 5941 5942 5942 5944 5945 5946 5948 5949 5949 5949 5950 5950 5950 5951 5951 5952
5881 5883 5885 5886 5888 5889 5889 5891 5892 5893 5894 5895 5896 5898 5900 5902 5902 5904 5906 5907 5909 5911 5912 5914 5915 5915 5915 5916 5919 5921 5923 5925 5926 5927 5928 5929 5929 5930 5931 5932 5934 5934 5935 5935 5936 5936 5937 5938 5939 5940 5941 5943 5945 5946 5947 5946 5947 5948 5948 5948 5948 5948 5949
5877 5878 5880 5882 5884 5886 5888 5890 5891 5891 5891 5892 5894 5896 5898 5900 5902 5904 5906 5907 5907 5908 5908 5909 5910 5911 5913 5915 5919 5921 5923 5924 5925 5925 5925 5925 5925 5926 5927 5929 5930 5930 5931 5931 5932 5933 5935 5935 5936 5937 5939 5941 5943 5944 5944 5944 5945 5945 5945 5945 5946 5946 5946
5875 5874 5875 5877 5880 5883 5884 5885 5886 5888 5889 5890 5891 5892 5894 5896 5898 5901 5903 5905 5905 5904 5904 5905 5908 5910 5913 5915 5918 5921 5922 5922 5922 5922 5922 5922 5923 5923 5924 5925 5927 5927 5927 5928 5929 5930 5931 5931 5932 5934 5936 5938 5939 5940 5940 5941 5941 5941 5942 5942 5943 5943 5943
5874 5874 5873 5874 5876 5878 5879 5880 5882 5884 5887 5888 5887 5888 5890 5892 5894 5896 5898 5899 5900 5901 5902 5903 5906 5909 5911 5913 5916 5918 5918 5918 5918 5918 5917 5918 5920 5920 5921 5922 5923 5924 5925 5925 5926 5927 5927 5928 5929 5931 5932 5934 5935 5935 5936 5937 5937 5937 5938 5938 5939 5939 5940
5872 5872 5871 5871 5871 5872 5874 5876 5878 5880 5881 5883 5884 5886 5887 5889 5891 5893 5894 5895 5896 5897 5899 5901 5903 5905 5906 5908 5912 5914 5914 5914 5914 5914 5914 5915 5916 5917 5918 5919 5920 5921 5922 5923 5924 5924 5924 5924 5926 5928 5929 5931 5932 5932 5933 5933 5934 5934 5934 5935 5935 5936 5936
5868 5867 5865 5864 5864 5866 5869 5871 5872 5873 5874 5876 5880 5883 5884 5886 5888 5889 5889 5890 5892 5893 5895 5897 5898 5900 5902 5905 5907 5909 5910 5910 5911 5911 5911 5912 5913 5914 5916 5915 5916 5917 5918 5920 5921 5921 5921 5921 5923 5925 5926 5928 5929 5930 5931 5931 5931 5930 5931 5931 5931 5932 5933
5863 5862 5860 5858 5857 5859 5863 5866 5867 5869 5870 5871 5874 5877 5879 5882 5884 5885 5885 5887 5889 5890 5891 5893 5895 5896 5900 5902 5904 5905 5907 5907 5909 5909 5909 5909 5910 5911 5911 5911 5911 5912 5914 5915 5917 5918 5918 5918 5919 5921 5923 5924 5925 5926 5927 5928 5927 5927 5927 5928 5928 5928 5929
5859 5857 5855 5853 5851 5854 5857 5861 5866 5868 5868 5870 5872 5873 5875 5878 5880 5882 5883 5885 5887 5888 5888 5889 5891 5894 5897 5899 5901 5902 5903 5904 5906 5907 5907 5907 5907 5907 5907 5907 5907 5909 5910 5912 5913 5914 5915 5915 5916 5917 5919 5920 5921 5922 5923 5923 5924 5924 5923 5923 5924 5924 5925
5854 5853 5850 5847 5847 5850 5854 5860 5866 5866 5864 5866 5869 5869 5870 5872 5875 5877 5880 5882 5884 5885 5886 5886 5887 5890 5893 5896 5898 5899 5899 5899 5902 5903 5903 5903 5903 5904 5904 5904 5904 5906 5907 5909 5910 5911 5911 5912 5913 5913 5914 5915 5917 5918 5918 5919 5919 5920 5920 5919 5919 5920 5921
5848 5848 5846 5845 5848 5850 5853 5858 5861 5860 5858 5861 5865 5866 5866 5867 5870 5872 5874 5878 5880 5882 5882 5883 5883 5884 5887 5891 5894 5895 5895 5895 5897 5899 5900 5900 5900 5901 5901 5901 5902 5903 5904 5905 5907 5908 5909 5910 5910 5910 5910 5910 5912 5913 5913 5914 5914 5914 5915 5915 5915 5915 5916
5842 5843 5844 5846 5848 5850 5852 5854 5855 5854 5854 5857 5861 5863 5864 5866 5868 5869 5871 5873 5874 5876 5877 5878 5879 5880 5881 5884 5887 5890 5890 5891 5893 5895 5897 5897 5898 5899 5898 5897 5898 5900 5900 5901 5903 5904 5906 5906 5907 5907 5906 5907 5907 5908 5909 5909 5910 5910 5910 5910 5910 5911 5911
5839 5840 5842 5843 5845 5847 5850 5851 5852 5851 5851 5854 5858 5861 5862 5864 5865 5866 5868 5869 5868 5870 5872 5874 5875 5876 5877 5878 5881 5883 5885 5887 5890 5892 5893 5894 5894 5895 5895 5895 5895 5896 5897 5897 5898 5900 5901 5902 5902 5902 5902 5903 5903 5904 5904 5905 5906 5906 5906 5906 5905 5906 5906
5836 5838 5838 5838 5840 5843 5845 5847 5849 5849 5849 5851 5854 5856 5857 5859 5860 5861 5863 5864 5865 5866 5868 5870 5871 5871 5871 5873 5875 5877 5879 5881 5883 5886 5889 5891 5891 5891 5891 5892 5892 5893 5893 5894 5894 5896 5897 5897 5897 5897 5898 5899 5900 5900 5900 5901 5901 5901 5902 5902 5901 5901 5901
5832 5834 5835 5835 5836 5839 5841 5842 5844 5845 5846 5847 5850 5851 5853 5855 5856 5857 5859 5861 5862 5864 5866 5867 5867 5867 5867 5869 5871 5873 5874 5876 5877 5879 5882 5886 5888 5888 5888 5888 5889 5889 5890 5891 5891 5892 5893 5893 5893 5893 5894 5895 5896 5896 5897 5898 5897 5897 5898 5898 5897 5897 5897
5827 5829 5831 5831 5832 5834 5836 5837 5839 5840 5841 5843 5845 5847 5849 5851 5852 5853 5854 5856 5858 5860 5862 5863 5864 5864 5864 5865 5867 5868 5870 5871 5873 5873 5875 5878 5881 5882 5882 5883 5884 5885 5885 5886 5886 5887 5888 5888 5889 5889 5890 5891 5891 5892 5892 5893 5893 5893 5893 5893 5893 5894 5894
5823 5824 5826 5827 5828 5829 5830 5832 5834 5835 5837 5838 5840 5842 5844 5846 5847 5848 5849 5850 5852 5854 5856 5858 5859 5860 5860 5861 5862 5864 5866 5867 5868 5869 5870 5872 5874 5876 5877 5877 5878 5879 5880 5881 5882 5882 5883 5883 5884 5885 5885 5886 5887 5887 5887 5888 5888 5889 5889 5889 5890 5891 5890
5817 5819 5820 5822 5823 5823 5825 5827 5828 5829 5831 5833 5834 5836 5838 5840 5842 5842 5843 5844 5845 5847 5848 5851 5852 5854 5855 5856 5857 5859 5860 5862 5863 5864 5865 5866 5867 5869 5870 5871 5872 5874 5875 5876 5877 5878 5878 5879 5879 5879 5880 5880 5881 5881 5882 5883 5883 5884 5885 5885 5885 5886 5886
5812 5813 5814 5816 5817 5818 5819 5821 5822 5823 5825 5826 5827 5829 5831 5833 5835 5836 5837 5838 5839 5841 5842 5844 5846 5848 5849 5850 5851 5853 5854 5855 5856 5858 5859 5860 5861 5862 5864 5865 5867 5868 5869 5870 5872 5873 5873 5874 5873 5873 5874 5875 5875 5876 5878 5879 5878 5879 5880 5880 5881 5881 5881
5806 5807 5808 5810 5811 5812 5814 5815 5816 5818 5819 5820 5821 5822 5824 5826 5828 5830 5830 5831 5833 5835 5837 5839 5840 5842 5843 5843 5844 5847 5849 5849 5850 5851 5852 5853 5854 5856 5857 5859 5860 5862 5863 5865 5866 5866 5867 5868 5868 5868 5869 5869 5870 5871 5873 5874 5874 5874 5875 5876 5876 5877 5877
5800 5802 5803 5805 5806 5807 5808 5809 5811 5812 5813 5814 5815 5817 5818 5819 5821 5823 5825 5826 5828 5829 5831 5832 5834 5835 5836 5837 5839 5842 5844 5844 5843 5844 5845 5847 5848 5850 5851 5852 5854 5856 5857 5859 5860 5860 5861 5863 5863 5863 5863 5864 5864 5866 5867 5868 5869 5870 5871 5871 5872 5873 5873
5794 5795 5797 5799 5800 5801 5802 5803 5805 5807 5808 5809 5810 5811 5812 5813 5814 5817 5819 5820 5822 5824 5825 5826 5827 5828 5828 5830 5833 5836 5838 5838 5837 5838 5839 5840 5842 5843 5845 5846 5848 5850 5851 5853 5854 5855 5857 5858 5859 5859 5859 5860 5860 5861 5862 5863 5865 5865 5866 5867 5868 5868 5869
5788 5789 5791 5792 5793 5795 5796 5798 5799 5801 5802 5804 5804 5805 5806 5807 5808 5811 5812 5814 5816 5818 5818 5819 5820 5821 5822 5823 5826 5829 5831 5831 5831 5832 5833 5834 5835 5836 5838 5840 5842 5844 5846 5847 5848 5849 5851 5852 5853 5854 5854 5855 5856 5856 5857 5858 5860 5860 5861 5862 5863 5864 5864